Find Raduga

NORAD ID: 20367 Int'l Des: 1989-098 Owner: UNKS Country: SU operational
MEOCIRCULAR

Live-Position

3D-Globus wird geladen...

Über Raduga

Beschreibung wird geladen...

Nächste Überflüge

Passes for default location (London). Set your location on the main map for personalized predictions.

Höhenverlauf

Loading altitude history...

Zweizeiliger Elementsatz

1 20367U 89098A 26106.96610241 -.00000329 00000-0 00000-0 0 9991
2 20367 12.5710 334.2286 0003180 302.3464 17.9760 1.00302587132358
Epoch: 16. Apr. 2026 • Age: 7 hours

Aktueller Status

Höhe 35785.5 km
Geschwindigkeit 3.07 km/s
Subsatellitenpunkt 11.97°N, 101.31°E
Startdatum 15. Dez. 1989
Alter 36.3 years
Typ other

Technische Details

Klassifizierung Payload
Masse 1965.00 kg
Trockenmasse 1800.00 kg
Gesamtmasse 1965.00 kg
Länge 5.50 m
Durchmesser 2.50 m
Spannweite 9.50 m
Form Step Cyl + 2 Pan
Hersteller NPOPM
Bus-Typ Raduga
Phasenstatus In Orbit
Besitzer/Staat UNKS/SU

Most Searched